owner,sensor,date,latitude,longitude,vertical_datum,sea_water_temperature,qcFlag 
NERRS,ioos:station:NOAA.NERRS:gndpcwq:1,2015-12-01T21:00:00Z,30.3486,-88.4185,0.0,21.0,2 
NERRS,ioos:station:NOAA.NERRS:gndpcwq:1,2015-12-01T22:00:00Z,30.3486,-88.4185,0.0,20.9,2 
NERRS,ioos:station:NOAA.NERRS:gndpcwq:1,2015-12-01T23:00:00Z,30.3486,-88.4185,0.0,21.0,2 
NERRS,ioos:station:NOAA.NERRS:gndpcwq:1,2015-12-02T00:00:00Z,30.3486,-88.4185,0.0,21.0,2 
NERRS,ioos:station:NOAA.NERRS:gndpcwq:1,2015-12-02T01:00:00Z,30.3486,-88.4185,0.0,21.1,2 
NERRS,ioos:station:NOAA.NERRS:gndpcwq:1,2015-12-02T02:00:00Z,30.3486,-88.4185,0.0,21.1,2 
NERRS,ioos:station:NOAA.NERRS:gndpcwq:1,2015-12-02T03:00:00Z,30.3486,-88.4185,0.0,21.1,2 
NERRS,ioos:station:NOAA.NERRS:gndpcwq:1,2015-12-02T04:00:00Z,30.3486,-88.4185,0.0,21.1,2 
NERRS,ioos:station:NOAA.NERRS:gndpcwq:1,2015-12-02T05:00:00Z,30.3486,-88.4185,0.0,21.0,2 
NERRS,ioos:station:NOAA.NERRS:gndpcwq:1,2015-12-02T06:00:00Z,30.3486,-88.4185,0.0,20.7,2 
NERRS,ioos:station:NOAA.NERRS:gndpcwq:1,2015-12-02T07:00:00Z,30.3486,-88.4185,0.0,20.4,2 
NERRS,ioos:station:NOAA.NERRS:gndpcwq:1,2015-12-02T08:00:00Z,30.3486,-88.4185,0.0,20.5,2 
NERRS,ioos:station:NOAA.NERRS:gndpcwq:1,2015-12-02T09:00:00Z,30.3486,-88.4185,0.0,20.6,2 
NERRS,ioos:station:NOAA.NERRS:gndpcwq:1,2015-12-02T10:00:00Z,30.3486,-88.4185,0.0,20.6,2 
NERRS,ioos:station:NOAA.NERRS:gndpcwq:1,2015-12-02T11:00:00Z,30.3486,-88.4185,0.0,20.5,2 
NERRS,ioos:station:NOAA.NERRS:gndpcwq:1,2015-12-02T12:00:00Z,30.3486,-88.4185,0.0,20.4,2 
NERRS,ioos:station:NOAA.NERRS:gndpcwq:1,2015-12-02T13:00:00Z,30.3486,-88.4185,0.0,20.3,2 
NERRS,ioos:station:NOAA.NERRS:gndpcwq:1,2015-12-02T14:00:00Z,30.3486,-88.4185,0.0,20.6,2 
NERRS,ioos:station:NOAA.NERRS:gndpcwq:1,2015-12-02T15:00:00Z,30.3486,-88.4185,0.0,20.4,2 
NERRS,ioos:station:NOAA.NERRS:gndpcwq:1,2015-12-02T16:00:00Z,30.3486,-88.4185,0.0,20.3,2 
NERRS,ioos:station:NOAA.NERRS:gndpcwq:1,2015-12-02T17:00:00Z,30.3486,-88.4185,0.0,20.4,2 
NERRS,ioos:station:NOAA.NERRS:gndpcwq:1,2015-12-02T18:00:00Z,30.3486,-88.4185,0.0,19.8,2 
NERRS,ioos:station:NOAA.NERRS:gndpcwq:1,2015-12-02T19:00:00Z,30.3486,-88.4185,0.0,19.8,2 
NERRS,ioos:station:NOAA.NERRS:gndpcwq:1,2015-12-02T20:00:00Z,30.3486,-88.4185,0.0,19.8,2 
NERRS,ioos:station:NOAA.NERRS:gndpcwq:1,2015-12-02T21:00:00Z,30.3486,-88.4185,0.0,19.7,2 
NERRS,ioos:station:NOAA.NERRS:gndpcwq:1,2015-12-02T22:00:00Z,30.3486,-88.4185,0.0,19.7,2 
NERRS,ioos:station:NOAA.NERRS:gndpcwq:1,2015-12-02T23:00:00Z,30.3486,-88.4185,0.0,19.6,2 
NERRS,ioos:station:NOAA.NERRS:gndpcwq:1,2015-12-03T00:00:00Z,30.3486,-88.4185,0.0,19.8,2 
NERRS,ioos:station:NOAA.NERRS:gndpcwq:1,2015-12-03T01:00:00Z,30.3486,-88.4185,0.0,20.2,2 
NERRS,ioos:station:NOAA.NERRS:gndpcwq:1,2015-12-03T02:00:00Z,30.3486,-88.4185,0.0,20.1,2 
NERRS,ioos:station:NOAA.NERRS:gndpcwq:1,2015-12-03T03:00:00Z,30.3486,-88.4185,0.0,19.9,2 
NERRS,ioos:station:NOAA.NERRS:gndpcwq:1,2015-12-03T04:00:00Z,30.3486,-88.4185,0.0,19.8,2 
NERRS,ioos:station:NOAA.NERRS:gndpcwq:1,2015-12-03T05:00:00Z,30.3486,-88.4185,0.0,19.7,2 
NERRS,ioos:station:NOAA.NERRS:gndpcwq:1,2015-12-03T06:00:00Z,30.3486,-88.4185,0.0,19.7,2 
NERRS,ioos:station:NOAA.NERRS:gndpcwq:1,2015-12-03T07:00:00Z,30.3486,-88.4185,0.0,20.0,2 
NERRS,ioos:station:NOAA.NERRS:gndpcwq:1,2015-12-03T08:00:00Z,30.3486,-88.4185,0.0,20.0,2 
NERRS,ioos:station:NOAA.NERRS:gndpcwq:1,2015-12-03T09:00:00Z,30.3486,-88.4185,0.0,20.0,2 
NERRS,ioos:station:NOAA.NERRS:gndpcwq:1,2015-12-03T10:00:00Z,30.3486,-88.4185,0.0,19.9,2 
NERRS,ioos:station:NOAA.NERRS:gndpcwq:1,2015-12-03T11:00:00Z,30.3486,-88.4185,0.0,19.8,2 
NERRS,ioos:station:NOAA.NERRS:gndpcwq:1,2015-12-03T12:00:00Z,30.3486,-88.4185,0.0,19.8,2 
NERRS,ioos:station:NOAA.NERRS:gndpcwq:1,2015-12-03T13:00:00Z,30.3486,-88.4185,0.0,19.7,2 
NERRS,ioos:station:NOAA.NERRS:gndpcwq:1,2015-12-03T14:00:00Z,30.3486,-88.4185,0.0,19.6,2 
NERRS,ioos:station:NOAA.NERRS:gndpcwq:1,2015-12-03T15:00:00Z,30.3486,-88.4185,0.0,18.6,2 
NERRS,ioos:station:NOAA.NERRS:gndpcwq:1,2015-12-03T16:00:00Z,30.3486,-88.4185,0.0,18.3,2 
NERRS,ioos:station:NOAA.NERRS:gndpcwq:1,2015-12-03T17:00:00Z,30.3486,-88.4185,0.0,18.4,2 
NERRS,ioos:station:NOAA.NERRS:gndpcwq:1,2015-12-03T18:00:00Z,30.3486,-88.4185,0.0,17.7,2 
NERRS,ioos:station:NOAA.NERRS:gndpcwq:1,2015-12-03T19:00:00Z,30.3486,-88.4185,0.0,17.5,2 
NERRS,ioos:station:NOAA.NERRS:gndpcwq:1,2015-12-03T20:00:00Z,30.3486,-88.4185,0.0,18.1,2 
NERRS,ioos:station:NOAA.NERRS:gndpcwq:1,2015-12-03T21:00:00Z,30.3486,-88.4185,0.0,18.0,2 
NERRS,ioos:station:NOAA.NERRS:gndpcwq:1,2015-12-03T22:00:00Z,30.3486,-88.4185,0.0,17.9,2 
NERRS,ioos:station:NOAA.NERRS:gndpcwq:1,2015-12-03T23:00:00Z,30.3486,-88.4185,0.0,17.8,2 
NERRS,ioos:station:NOAA.NERRS:gndpcwq:1,2015-12-04T00:00:00Z,30.3486,-88.4185,0.0,17.7,2 
NERRS,ioos:station:NOAA.NERRS:gndpcwq:1,2015-12-04T01:00:00Z,30.3486,-88.4185,0.0,17.4,2 
NERRS,ioos:station:NOAA.NERRS:gndpcwq:1,2015-12-04T02:00:00Z,30.3486,-88.4185,0.0,17.4,2 
NERRS,ioos:station:NOAA.NERRS:gndpcwq:1,2015-12-04T03:00:00Z,30.3486,-88.4185,0.0,17.2,2 
NERRS,ioos:station:NOAA.NERRS:gndpcwq:1,2015-12-04T04:00:00Z,30.3486,-88.4185,0.0,17.0,2 
NERRS,ioos:station:NOAA.NERRS:gndpcwq:1,2015-12-04T05:00:00Z,30.3486,-88.4185,0.0,16.6,2 
NERRS,ioos:station:NOAA.NERRS:gndpcwq:1,2015-12-04T06:00:00Z,30.3486,-88.4185,0.0,16.2,2 
NERRS,ioos:station:NOAA.NERRS:gndpcwq:1,2015-12-04T07:00:00Z,30.3486,-88.4185,0.0,15.8,2 
NERRS,ioos:station:NOAA.NERRS:gndpcwq:1,2015-12-04T08:00:00Z,30.3486,-88.4185,0.0,15.6,2 
NERRS,ioos:station:NOAA.NERRS:gndpcwq:1,2015-12-04T09:00:00Z,30.3486,-88.4185,0.0,15.5,2 
NERRS,ioos:station:NOAA.NERRS:gndpcwq:1,2015-12-04T10:00:00Z,30.3486,-88.4185,0.0,15.3,2 
NERRS,ioos:station:NOAA.NERRS:gndpcwq:1,2015-12-04T11:00:00Z,30.3486,-88.4185,0.0,15.2,2 
NERRS,ioos:station:NOAA.NERRS:gndpcwq:1,2015-12-04T12:00:00Z,30.3486,-88.4185,0.0,15.1,2 
NERRS,ioos:station:NOAA.NERRS:gndpcwq:1,2015-12-04T13:00:00Z,30.3486,-88.4185,0.0,14.9,2 
NERRS,ioos:station:NOAA.NERRS:gndpcwq:1,2015-12-04T14:00:00Z,30.3486,-88.4185,0.0,14.8,2 
NERRS,ioos:station:NOAA.NERRS:gndpcwq:1,2015-12-04T15:00:00Z,30.3486,-88.4185,0.0,14.7,2 
NERRS,ioos:station:NOAA.NERRS:gndpcwq:1,2015-12-04T16:00:00Z,30.3486,-88.4185,0.0,14.8,2 
NERRS,ioos:station:NOAA.NERRS:gndpcwq:1,2015-12-04T17:00:00Z,30.3486,-88.4185,0.0,15.3,2 
NERRS,ioos:station:NOAA.NERRS:gndpcwq:1,2015-12-04T18:00:00Z,30.3486,-88.4185,0.0,15.6,2 
NERRS,ioos:station:NOAA.NERRS:gndpcwq:1,2015-12-05T00:00:00Z,30.3486,-88.4185,0.0,16.6,2 
NERRS,ioos:station:NOAA.NERRS:gndpcwq:1,2015-12-05T06:00:00Z,30.3486,-88.4185,0.0,15.4,2 
NERRS,ioos:station:NOAA.NERRS:gndpcwq:1,2015-12-05T12:00:00Z,30.3486,-88.4185,0.0,14.8,2 
NERRS,ioos:station:NOAA.NERRS:gndpcwq:1,2015-12-05T18:00:00Z,30.3486,-88.4185,0.0,15.4,2 
NERRS,ioos:station:NOAA.NERRS:gndpcwq:1,2015-12-06T00:00:00Z,30.3486,-88.4185,0.0,16.1,2 
NERRS,ioos:station:NOAA.NERRS:gndpcwq:1,2015-12-06T06:00:00Z,30.3486,-88.4185,0.0,16.1,2 
NERRS,ioos:station:NOAA.NERRS:gndpcwq:1,2015-12-06T11:00:00Z,30.3486,-88.4185,0.0,16.4,2 
NERRS,ioos:station:NOAA.NERRS:gndpcwq:1,2015-12-06T16:00:00Z,30.3486,-88.4185,0.0,15.0,2 
NERRS,ioos:station:NOAA.NERRS:gndpcwq:1,2015-12-06T17:00:00Z,30.3486,-88.4185,0.0,15.5,2 
NERRS,ioos:station:NOAA.NERRS:gndpcwq:1,2015-12-06T18:00:00Z,30.3486,-88.4185,0.0,15.7,2 
NERRS,ioos:station:NOAA.NERRS:gndpcwq:1,2015-12-06T19:00:00Z,30.3486,-88.4185,0.0,15.7,2 
NERRS,ioos:station:NOAA.NERRS:gndpcwq:1,2015-12-06T20:00:00Z,30.3486,-88.4185,0.0,15.9,2 
NERRS,ioos:station:NOAA.NERRS:gndpcwq:1,2015-12-06T21:00:00Z,30.3486,-88.4185,0.0,16.1,2 
NERRS,ioos:station:NOAA.NERRS:gndpcwq:1,2015-12-06T22:00:00Z,30.3486,-88.4185,0.0,16.3,2 
NERRS,ioos:station:NOAA.NERRS:gndpcwq:1,2015-12-06T23:00:00Z,30.3486,-88.4185,0.0,16.0,2 
NERRS,ioos:station:NOAA.NERRS:gndpcwq:1,2015-12-07T00:00:00Z,30.3486,-88.4185,0.0,16.0,2 
NERRS,ioos:station:NOAA.NERRS:gndpcwq:1,2015-12-07T01:00:00Z,30.3486,-88.4185,0.0,16.0,2 
NERRS,ioos:station:NOAA.NERRS:gndpcwq:1,2015-12-07T02:00:00Z,30.3486,-88.4185,0.0,16.1,2 
NERRS,ioos:station:NOAA.NERRS:gndpcwq:1,2015-12-07T03:00:00Z,30.3486,-88.4185,0.0,16.1,2 
NERRS,ioos:station:NOAA.NERRS:gndpcwq:1,2015-12-07T05:00:00Z,30.3486,-88.4185,0.0,16.3,2 
NERRS,ioos:station:NOAA.NERRS:gndpcwq:1,2015-12-07T06:00:00Z,30.3486,-88.4185,0.0,16.3,2 
NERRS,ioos:station:NOAA.NERRS:gndpcwq:1,2015-12-07T07:00:00Z,30.3486,-88.4185,0.0,16.4,2 
NERRS,ioos:station:NOAA.NERRS:gndpcwq:1,2015-12-07T08:00:00Z,30.3486,-88.4185,0.0,16.1,2 
NERRS,ioos:station:NOAA.NERRS:gndpcwq:1,2015-12-07T09:00:00Z,30.3486,-88.4185,0.0,16.4,2 
NERRS,ioos:station:NOAA.NERRS:gndpcwq:1,2015-12-07T10:00:00Z,30.3486,-88.4185,0.0,16.3,2 
NERRS,ioos:station:NOAA.NERRS:gndpcwq:1,2015-12-07T11:00:00Z,30.3486,-88.4185,0.0,16.2,2 
NERRS,ioos:station:NOAA.NERRS:gndpcwq:1,2015-12-07T12:00:00Z,30.3486,-88.4185,0.0,16.1,2 
NERRS,ioos:station:NOAA.NERRS:gndpcwq:1,2015-12-07T13:00:00Z,30.3486,-88.4185,0.0,16.1,2 
NERRS,ioos:station:NOAA.NERRS:gndpcwq:1,2015-12-07T14:00:00Z,30.3486,-88.4185,0.0,15.9,2 
NERRS,ioos:station:NOAA.NERRS:gndpcwq:1,2015-12-07T15:00:00Z,30.3486,-88.4185,0.0,16.0,2 
NERRS,ioos:station:NOAA.NERRS:gndpcwq:1,2015-12-07T16:00:00Z,30.3486,-88.4185,0.0,16.4,2 
NERRS,ioos:station:NOAA.NERRS:gndpcwq:1,2015-12-07T17:00:00Z,30.3486,-88.4185,0.0,16.9,2 
NERRS,ioos:station:NOAA.NERRS:gndpcwq:1,2015-12-07T18:00:00Z,30.3486,-88.4185,0.0,17.1,2 
NERRS,ioos:station:NOAA.NERRS:gndpcwq:1,2015-12-07T19:00:00Z,30.3486,-88.4185,0.0,17.2,2 
NERRS,ioos:station:NOAA.NERRS:gndpcwq:1,2015-12-07T21:00:00Z,30.3486,-88.4185,0.0,17.4,2 
NERRS,ioos:station:NOAA.NERRS:gndpcwq:1,2015-12-07T22:00:00Z,30.3486,-88.4185,0.0,17.5,2 
NERRS,ioos:station:NOAA.NERRS:gndpcwq:1,2015-12-07T23:00:00Z,30.3486,-88.4185,0.0,17.5,2 
NERRS,ioos:station:NOAA.NERRS:gndpcwq:1,2015-12-08T00:00:00Z,30.3486,-88.4185,0.0,17.5,2 
NERRS,ioos:station:NOAA.NERRS:gndpcwq:1,2015-12-08T01:00:00Z,30.3486,-88.4185,0.0,17.5,2 
NERRS,ioos:station:NOAA.NERRS:gndpcwq:1,2015-12-08T02:00:00Z,30.3486,-88.4185,0.0,17.5,2 
NERRS,ioos:station:NOAA.NERRS:gndpcwq:1,2015-12-08T03:00:00Z,30.3486,-88.4185,0.0,17.4,2 
NERRS,ioos:station:NOAA.NERRS:gndpcwq:1,2015-12-08T04:00:00Z,30.3486,-88.4185,0.0,17.4,2 
NERRS,ioos:station:NOAA.NERRS:gndpcwq:1,2015-12-08T05:00:00Z,30.3486,-88.4185,0.0,17.4,2 
NERRS,ioos:station:NOAA.NERRS:gndpcwq:1,2015-12-08T06:00:00Z,30.3486,-88.4185,0.0,17.4,2 
NERRS,ioos:station:NOAA.NERRS:gndpcwq:1,2015-12-08T07:00:00Z,30.3486,-88.4185,0.0,17.3,2 
NERRS,ioos:station:NOAA.NERRS:gndpcwq:1,2015-12-08T08:00:00Z,30.3486,-88.4185,0.0,17.3,2 
NERRS,ioos:station:NOAA.NERRS:gndpcwq:1,2015-12-08T09:00:00Z,30.3486,-88.4185,0.0,17.2,2 
NERRS,ioos:station:NOAA.NERRS:gndpcwq:1,2015-12-08T10:00:00Z,30.3486,-88.4185,0.0,16.9,2 
NERRS,ioos:station:NOAA.NERRS:gndpcwq:1,2015-12-08T11:00:00Z,30.3486,-88.4185,0.0,17.1,2 
NERRS,ioos:station:NOAA.NERRS:gndpcwq:1,2015-12-08T12:00:00Z,30.3486,-88.4185,0.0,17.0,2 
NERRS,ioos:station:NOAA.NERRS:gndpcwq:1,2015-12-08T13:00:00Z,30.3486,-88.4185,0.0,16.8,2 
NERRS,ioos:station:NOAA.NERRS:gndpcwq:1,2015-12-08T14:00:00Z,30.3486,-88.4185,0.0,16.7,2 
NERRS,ioos:station:NOAA.NERRS:gndpcwq:1,2015-12-08T15:00:00Z,30.3486,-88.4185,0.0,16.9,2 
NERRS,ioos:station:NOAA.NERRS:gndpcwq:1,2015-12-08T16:00:00Z,30.3486,-88.4185,0.0,17.1,2 
NERRS,ioos:station:NOAA.NERRS:gndpcwq:1,2015-12-08T17:00:00Z,30.3486,-88.4185,0.0,17.4,2 
NERRS,ioos:station:NOAA.NERRS:gndpcwq:1,2015-12-08T18:00:00Z,30.3486,-88.4185,0.0,17.9,2 
NERRS,ioos:station:NOAA.NERRS:gndpcwq:1,2015-12-08T19:00:00Z,30.3486,-88.4185,0.0,17.9,2 
NERRS,ioos:station:NOAA.NERRS:gndpcwq:1,2015-12-08T20:00:00Z,30.3486,-88.4185,0.0,18.3,2 
NERRS,ioos:station:NOAA.NERRS:gndpcwq:1,2015-12-08T21:00:00Z,30.3486,-88.4185,0.0,18.3,2 
NERRS,ioos:station:NOAA.NERRS:gndpcwq:1,2015-12-08T22:00:00Z,30.3486,-88.4185,0.0,18.3,2 
NERRS,ioos:station:NOAA.NERRS:gndpcwq:1,2015-12-08T23:00:00Z,30.3486,-88.4185,0.0,18.2,2 
NERRS,ioos:station:NOAA.NERRS:gndpcwq:1,2015-12-09T00:00:00Z,30.3486,-88.4185,0.0,18.2,2 
NERRS,ioos:station:NOAA.NERRS:gndpcwq:1,2015-12-09T01:00:00Z,30.3486,-88.4185,0.0,18.1,2 
NERRS,ioos:station:NOAA.NERRS:gndpcwq:1,2015-12-09T02:00:00Z,30.3486,-88.4185,0.0,18.2,2 
NERRS,ioos:station:NOAA.NERRS:gndpcwq:1,2015-12-09T03:00:00Z,30.3486,-88.4185,0.0,18.1,2 
NERRS,ioos:station:NOAA.NERRS:gndpcwq:1,2015-12-09T04:00:00Z,30.3486,-88.4185,0.0,18.1,2 
NERRS,ioos:station:NOAA.NERRS:gndpcwq:1,2015-12-09T05:00:00Z,30.3486,-88.4185,0.0,18.1,2 
NERRS,ioos:station:NOAA.NERRS:gndpcwq:1,2015-12-09T06:00:00Z,30.3486,-88.4185,0.0,18.0,2 
NERRS,ioos:station:NOAA.NERRS:gndpcwq:1,2015-12-09T07:00:00Z,30.3486,-88.4185,0.0,17.9,2 
NERRS,ioos:station:NOAA.NERRS:gndpcwq:1,2015-12-09T08:00:00Z,30.3486,-88.4185,0.0,17.5,2 
NERRS,ioos:station:NOAA.NERRS:gndpcwq:1,2015-12-09T09:00:00Z,30.3486,-88.4185,0.0,17.3,2 
NERRS,ioos:station:NOAA.NERRS:gndpcwq:1,2015-12-09T10:00:00Z,30.3486,-88.4185,0.0,17.4,2 
NERRS,ioos:station:NOAA.NERRS:gndpcwq:1,2015-12-09T11:00:00Z,30.3486,-88.4185,0.0,17.9,2 
NERRS,ioos:station:NOAA.NERRS:gndpcwq:1,2015-12-09T12:00:00Z,30.3486,-88.4185,0.0,17.9,2 
NERRS,ioos:station:NOAA.NERRS:gndpcwq:1,2015-12-09T13:00:00Z,30.3486,-88.4185,0.0,17.9,2 
NERRS,ioos:station:NOAA.NERRS:gndpcwq:1,2015-12-09T14:00:00Z,30.3486,-88.4185,0.0,18.0,2 
NERRS,ioos:station:NOAA.NERRS:gndpcwq:1,2015-12-09T15:00:00Z,30.3486,-88.4185,0.0,17.9,2 
NERRS,ioos:station:NOAA.NERRS:gndpcwq:1,2015-12-09T16:00:00Z,30.3486,-88.4185,0.0,18.0,2 
NERRS,ioos:station:NOAA.NERRS:gndpcwq:1,2015-12-09T18:00:00Z,30.3486,-88.4185,0.0,18.7,2 
NERRS,ioos:station:NOAA.NERRS:gndpcwq:1,2015-12-09T19:00:00Z,30.3486,-88.4185,0.0,19.0,2 
NERRS,ioos:station:NOAA.NERRS:gndpcwq:1,2015-12-09T20:00:00Z,30.3486,-88.4185,0.0,19.1,2 
NERRS,ioos:station:NOAA.NERRS:gndpcwq:1,2015-12-09T21:00:00Z,30.3486,-88.4185,0.0,19.0,2 
NERRS,ioos:station:NOAA.NERRS:gndpcwq:1,2015-12-09T22:00:00Z,30.3486,-88.4185,0.0,18.3,2 
NERRS,ioos:station:NOAA.NERRS:gndpcwq:1,2015-12-09T23:00:00Z,30.3486,-88.4185,0.0,18.3,2 
NERRS,ioos:station:NOAA.NERRS:gndpcwq:1,2015-12-10T00:00:00Z,30.3486,-88.4185,0.0,18.2,2 
NERRS,ioos:station:NOAA.NERRS:gndpcwq:1,2015-12-10T01:00:00Z,30.3486,-88.4185,0.0,18.1,2 
NERRS,ioos:station:NOAA.NERRS:gndpcwq:1,2015-12-10T02:00:00Z,30.3486,-88.4185,0.0,18.3,2 
NERRS,ioos:station:NOAA.NERRS:gndpcwq:1,2015-12-10T03:00:00Z,30.3486,-88.4185,0.0,18.3,2 
NERRS,ioos:station:NOAA.NERRS:gndpcwq:1,2015-12-10T04:00:00Z,30.3486,-88.4185,0.0,18.3,2 
NERRS,ioos:station:NOAA.NERRS:gndpcwq:1,2015-12-10T05:00:00Z,30.3486,-88.4185,0.0,18.3,2 
NERRS,ioos:station:NOAA.NERRS:gndpcwq:1,2015-12-10T06:00:00Z,30.3486,-88.4185,0.0,18.2,2 
NERRS,ioos:station:NOAA.NERRS:gndpcwq:1,2015-12-10T07:00:00Z,30.3486,-88.4185,0.0,18.2,2 
NERRS,ioos:station:NOAA.NERRS:gndpcwq:1,2015-12-10T08:00:00Z,30.3486,-88.4185,0.0,18.1,2 
NERRS,ioos:station:NOAA.NERRS:gndpcwq:1,2015-12-10T09:00:00Z,30.3486,-88.4185,0.0,18.1,2 
NERRS,ioos:station:NOAA.NERRS:gndpcwq:1,2015-12-10T10:00:00Z,30.3486,-88.4185,0.0,17.9,2 
NERRS,ioos:station:NOAA.NERRS:gndpcwq:1,2015-12-10T11:00:00Z,30.3486,-88.4185,0.0,17.9,2 
NERRS,ioos:station:NOAA.NERRS:gndpcwq:1,2015-12-10T12:00:00Z,30.3486,-88.4185,0.0,17.9,2 
NERRS,ioos:station:NOAA.NERRS:gndpcwq:1,2015-12-10T13:00:00Z,30.3486,-88.4185,0.0,17.9,2 
NERRS,ioos:station:NOAA.NERRS:gndpcwq:1,2015-12-10T14:00:00Z,30.3486,-88.4185,0.0,18.1,2 
NERRS,ioos:station:NOAA.NERRS:gndpcwq:1,2015-12-10T15:00:00Z,30.3486,-88.4185,0.0,18.3,2 
NERRS,ioos:station:NOAA.NERRS:gndpcwq:1,2015-12-10T16:00:00Z,30.3486,-88.4185,0.0,18.4,2 
NERRS,ioos:station:NOAA.NERRS:gndpcwq:1,2015-12-10T17:00:00Z,30.3486,-88.4185,0.0,18.4,2 
NERRS,ioos:station:NOAA.NERRS:gndpcwq:1,2015-12-10T18:00:00Z,30.3486,-88.4185,0.0,18.5,2 
NERRS,ioos:station:NOAA.NERRS:gndpcwq:1,2015-12-10T19:00:00Z,30.3486,-88.4185,0.0,18.6,2 
NERRS,ioos:station:NOAA.NERRS:gndpcwq:1,2015-12-10T20:00:00Z,30.3486,-88.4185,0.0,18.7,2 
NERRS,ioos:station:NOAA.NERRS:gndpcwq:1,2015-12-10T21:00:00Z,30.3486,-88.4185,0.0,18.7,2 
NERRS,ioos:station:NOAA.NERRS:gndpcwq:1,2015-12-10T22:00:00Z,30.3486,-88.4185,0.0,18.8,2 
NERRS,ioos:station:NOAA.NERRS:gndpcwq:1,2015-12-10T23:00:00Z,30.3486,-88.4185,0.0,18.9,2 
NERRS,ioos:station:NOAA.NERRS:gndpcwq:1,2015-12-11T00:00:00Z,30.3486,-88.4185,0.0,18.9,2 
NERRS,ioos:station:NOAA.NERRS:gndpcwq:1,2015-12-11T01:00:00Z,30.3486,-88.4185,0.0,18.8,2 
NERRS,ioos:station:NOAA.NERRS:gndpcwq:1,2015-12-11T02:00:00Z,30.3486,-88.4185,0.0,18.7,2 
NERRS,ioos:station:NOAA.NERRS:gndpcwq:1,2015-12-11T03:00:00Z,30.3486,-88.4185,0.0,18.7,2 
NERRS,ioos:station:NOAA.NERRS:gndpcwq:1,2015-12-11T04:00:00Z,30.3486,-88.4185,0.0,18.6,2 
NERRS,ioos:station:NOAA.NERRS:gndpcwq:1,2015-12-11T05:00:00Z,30.3486,-88.4185,0.0,18.5,2 
NERRS,ioos:station:NOAA.NERRS:gndpcwq:1,2015-12-11T06:00:00Z,30.3486,-88.4185,0.0,18.4,2 
NERRS,ioos:station:NOAA.NERRS:gndpcwq:1,2015-12-11T07:00:00Z,30.3486,-88.4185,0.0,18.4,2 
NERRS,ioos:station:NOAA.NERRS:gndpcwq:1,2015-12-11T08:00:00Z,30.3486,-88.4185,0.0,18.5,2 
NERRS,ioos:station:NOAA.NERRS:gndpcwq:1,2015-12-11T09:00:00Z,30.3486,-88.4185,0.0,18.6,2 
NERRS,ioos:station:NOAA.NERRS:gndpcwq:1,2015-12-11T09:15:00Z,30.3486,-88.4185,0.0,18.6,2 
NERRS,ioos:station:NOAA.NERRS:gndpcwq:1,2015-12-14T20:00:00Z,30.3486,-88.4185,0.0,20.9,2 
NERRS,ioos:station:NOAA.NERRS:gndpcwq:1,2015-12-14T21:00:00Z,30.3486,-88.4185,0.0,20.8,2 
NERRS,ioos:station:NOAA.NERRS:gndpcwq:1,2015-12-14T22:00:00Z,30.3486,-88.4185,0.0,20.8,2 
NERRS,ioos:station:NOAA.NERRS:gndpcwq:1,2015-12-14T23:00:00Z,30.3486,-88.4185,0.0,20.6,2 
NERRS,ioos:station:NOAA.NERRS:gndpcwq:1,2015-12-15T00:00:00Z,30.3486,-88.4185,0.0,20.6,2 
NERRS,ioos:station:NOAA.NERRS:gndpcwq:1,2015-12-15T01:00:00Z,30.3486,-88.4185,0.0,20.3,2 
NERRS,ioos:station:NOAA.NERRS:gndpcwq:1,2015-12-15T02:00:00Z,30.3486,-88.4185,0.0,20.2,2 
NERRS,ioos:station:NOAA.NERRS:gndpcwq:1,2015-12-15T03:00:00Z,30.3486,-88.4185,0.0,20.1,2 
NERRS,ioos:station:NOAA.NERRS:gndpcwq:1,2015-12-15T04:00:00Z,30.3486,-88.4185,0.0,19.8,2 
NERRS,ioos:station:NOAA.NERRS:gndpcwq:1,2015-12-15T05:00:00Z,30.3486,-88.4185,0.0,19.5,2 
NERRS,ioos:station:NOAA.NERRS:gndpcwq:1,2015-12-15T06:00:00Z,30.3486,-88.4185,0.0,19.4,2 
NERRS,ioos:station:NOAA.NERRS:gndpcwq:1,2015-12-15T07:00:00Z,30.3486,-88.4185,0.0,19.3,2 
NERRS,ioos:station:NOAA.NERRS:gndpcwq:1,2015-12-15T08:00:00Z,30.3486,-88.4185,0.0,19.3,2 
NERRS,ioos:station:NOAA.NERRS:gndpcwq:1,2015-12-15T09:00:00Z,30.3486,-88.4185,0.0,19.3,2 
NERRS,ioos:station:NOAA.NERRS:gndpcwq:1,2015-12-15T10:00:00Z,30.3486,-88.4185,0.0,19.3,2 
NERRS,ioos:station:NOAA.NERRS:gndpcwq:1,2015-12-15T11:00:00Z,30.3486,-88.4185,0.0,19.3,2 
NERRS,ioos:station:NOAA.NERRS:gndpcwq:1,2015-12-15T12:00:00Z,30.3486,-88.4185,0.0,19.2,2 
NERRS,ioos:station:NOAA.NERRS:gndpcwq:1,2015-12-15T13:00:00Z,30.3486,-88.4185,0.0,19.2,2 
NERRS,ioos:station:NOAA.NERRS:gndpcwq:1,2015-12-15T14:00:00Z,30.3486,-88.4185,0.0,19.2,2 
NERRS,ioos:station:NOAA.NERRS:gndpcwq:1,2015-12-15T15:00:00Z,30.3486,-88.4185,0.0,19.3,2 
NERRS,ioos:station:NOAA.NERRS:gndpcwq:1,2015-12-15T16:00:00Z,30.3486,-88.4185,0.0,19.8,2 
NERRS,ioos:station:NOAA.NERRS:gndpcwq:1,2015-12-15T17:00:00Z,30.3486,-88.4185,0.0,20.0,2 
NERRS,ioos:station:NOAA.NERRS:gndpcwq:1,2015-12-15T18:00:00Z,30.3486,-88.4185,0.0,20.2,2 
NERRS,ioos:station:NOAA.NERRS:gndpcwq:1,2015-12-15T19:00:00Z,30.3486,-88.4185,0.0,20.3,2 
NERRS,ioos:station:NOAA.NERRS:gndpcwq:1,2015-12-15T20:00:00Z,30.3486,-88.4185,0.0,20.4,2 
NERRS,ioos:station:NOAA.NERRS:gndpcwq:1,2015-12-15T21:00:00Z,30.3486,-88.4185,0.0,20.5,2 
NERRS,ioos:station:NOAA.NERRS:gndpcwq:1,2015-12-15T22:00:00Z,30.3486,-88.4185,0.0,20.5,2 
NERRS,ioos:station:NOAA.NERRS:gndpcwq:1,2015-12-16T00:00:00Z,30.3486,-88.4185,0.0,20.4,2 
NERRS,ioos:station:NOAA.NERRS:gndpcwq:1,2015-12-16T01:00:00Z,30.3486,-88.4185,0.0,20.3,2 
NERRS,ioos:station:NOAA.NERRS:gndpcwq:1,2015-12-16T02:00:00Z,30.3486,-88.4185,0.0,20.3,2 
NERRS,ioos:station:NOAA.NERRS:gndpcwq:1,2015-12-16T03:00:00Z,30.3486,-88.4185,0.0,20.3,2 
NERRS,ioos:station:NOAA.NERRS:gndpcwq:1,2015-12-16T04:00:00Z,30.3486,-88.4185,0.0,20.3,2 
NERRS,ioos:station:NOAA.NERRS:gndpcwq:1,2015-12-16T05:00:00Z,30.3486,-88.4185,0.0,20.3,2 
NERRS,ioos:station:NOAA.NERRS:gndpcwq:1,2015-12-16T06:00:00Z,30.3486,-88.4185,0.0,20.3,2 
NERRS,ioos:station:NOAA.NERRS:gndpcwq:1,2015-12-16T07:00:00Z,30.3486,-88.4185,0.0,20.3,2 
NERRS,ioos:station:NOAA.NERRS:gndpcwq:1,2015-12-16T08:00:00Z,30.3486,-88.4185,0.0,20.3,2 
NERRS,ioos:station:NOAA.NERRS:gndpcwq:1,2015-12-16T09:00:00Z,30.3486,-88.4185,0.0,20.2,2 
NERRS,ioos:station:NOAA.NERRS:gndpcwq:1,2015-12-16T10:00:00Z,30.3486,-88.4185,0.0,19.9,2 
NERRS,ioos:station:NOAA.NERRS:gndpcwq:1,2015-12-16T11:00:00Z,30.3486,-88.4185,0.0,20.1,2 
NERRS,ioos:station:NOAA.NERRS:gndpcwq:1,2015-12-16T12:00:00Z,30.3486,-88.4185,0.0,20.1,2 
NERRS,ioos:station:NOAA.NERRS:gndpcwq:1,2015-12-16T13:00:00Z,30.3486,-88.4185,0.0,20.1,2 
NERRS,ioos:station:NOAA.NERRS:gndpcwq:1,2015-12-16T14:00:00Z,30.3486,-88.4185,0.0,20.1,2 
NERRS,ioos:station:NOAA.NERRS:gndpcwq:1,2015-12-16T15:00:00Z,30.3486,-88.4185,0.0,20.1,2 
NERRS,ioos:station:NOAA.NERRS:gndpcwq:1,2015-12-16T16:00:00Z,30.3486,-88.4185,0.0,20.2,2 
NERRS,ioos:station:NOAA.NERRS:gndpcwq:1,2015-12-16T17:00:00Z,30.3486,-88.4185,0.0,20.3,2 
NERRS,ioos:station:NOAA.NERRS:gndpcwq:1,2015-12-16T18:00:00Z,30.3486,-88.4185,0.0,20.4,2 
NERRS,ioos:station:NOAA.NERRS:gndpcwq:1,2015-12-16T19:00:00Z,30.3486,-88.4185,0.0,20.4,2 
NERRS,ioos:station:NOAA.NERRS:gndpcwq:1,2015-12-16T20:00:00Z,30.3486,-88.4185,0.0,20.6,2 
NERRS,ioos:station:NOAA.NERRS:gndpcwq:1,2015-12-16T21:00:00Z,30.3486,-88.4185,0.0,20.7,2 
NERRS,ioos:station:NOAA.NERRS:gndpcwq:1,2015-12-16T22:00:00Z,30.3486,-88.4185,0.0,20.7,2 
NERRS,ioos:station:NOAA.NERRS:gndpcwq:1,2015-12-16T23:00:00Z,30.3486,-88.4185,0.0,20.8,2 
NERRS,ioos:station:NOAA.NERRS:gndpcwq:1,2015-12-17T00:00:00Z,30.3486,-88.4185,0.0,20.8,2 
NERRS,ioos:station:NOAA.NERRS:gndpcwq:1,2015-12-17T01:00:00Z,30.3486,-88.4185,0.0,20.8,2 
NERRS,ioos:station:NOAA.NERRS:gndpcwq:1,2015-12-17T02:00:00Z,30.3486,-88.4185,0.0,20.7,2 
NERRS,ioos:station:NOAA.NERRS:gndpcwq:1,2015-12-17T03:00:00Z,30.3486,-88.4185,0.0,20.7,2 
NERRS,ioos:station:NOAA.NERRS:gndpcwq:1,2015-12-17T04:00:00Z,30.3486,-88.4185,0.0,20.7,2 
NERRS,ioos:station:NOAA.NERRS:gndpcwq:1,2015-12-17T05:00:00Z,30.3486,-88.4185,0.0,20.7,2 
NERRS,ioos:station:NOAA.NERRS:gndpcwq:1,2015-12-17T06:00:00Z,30.3486,-88.4185,0.0,20.7,2 
NERRS,ioos:station:NOAA.NERRS:gndpcwq:1,2015-12-17T07:00:00Z,30.3486,-88.4185,0.0,20.7,2 
NERRS,ioos:station:NOAA.NERRS:gndpcwq:1,2015-12-17T08:00:00Z,30.3486,-88.4185,0.0,20.6,2 
NERRS,ioos:station:NOAA.NERRS:gndpcwq:1,2015-12-17T09:00:00Z,30.3486,-88.4185,0.0,20.6,2 
NERRS,ioos:station:NOAA.NERRS:gndpcwq:1,2015-12-17T10:00:00Z,30.3486,-88.4185,0.0,20.5,2 
NERRS,ioos:station:NOAA.NERRS:gndpcwq:1,2015-12-17T11:00:00Z,30.3486,-88.4185,0.0,20.6,2 
NERRS,ioos:station:NOAA.NERRS:gndpcwq:1,2015-12-17T12:00:00Z,30.3486,-88.4185,0.0,20.5,2 
NERRS,ioos:station:NOAA.NERRS:gndpcwq:1,2015-12-17T13:00:00Z,30.3486,-88.4185,0.0,20.5,2 
NERRS,ioos:station:NOAA.NERRS:gndpcwq:1,2015-12-17T14:00:00Z,30.3486,-88.4185,0.0,20.5,2 
NERRS,ioos:station:NOAA.NERRS:gndpcwq:1,2015-12-17T15:00:00Z,30.3486,-88.4185,0.0,20.5,2 
NERRS,ioos:station:NOAA.NERRS:gndpcwq:1,2015-12-17T16:00:00Z,30.3486,-88.4185,0.0,20.4,2 
NERRS,ioos:station:NOAA.NERRS:gndpcwq:1,2015-12-17T17:00:00Z,30.3486,-88.4185,0.0,20.4,2 
NERRS,ioos:station:NOAA.NERRS:gndpcwq:1,2015-12-17T18:00:00Z,30.3486,-88.4185,0.0,20.5,2 
NERRS,ioos:station:NOAA.NERRS:gndpcwq:1,2015-12-17T19:00:00Z,30.3486,-88.4185,0.0,20.4,2 
NERRS,ioos:station:NOAA.NERRS:gndpcwq:1,2015-12-17T20:00:00Z,30.3486,-88.4185,0.0,20.4,2 
NERRS,ioos:station:NOAA.NERRS:gndpcwq:1,2015-12-17T21:00:00Z,30.3486,-88.4185,0.0,20.3,2 
NERRS,ioos:station:NOAA.NERRS:gndpcwq:1,2015-12-17T22:00:00Z,30.3486,-88.4185,0.0,20.3,2 
NERRS,ioos:station:NOAA.NERRS:gndpcwq:1,2015-12-17T23:00:00Z,30.3486,-88.4185,0.0,20.3,2 
NERRS,ioos:station:NOAA.NERRS:gndpcwq:1,2015-12-18T00:00:00Z,30.3486,-88.4185,0.0,20.0,2 